Flag for Canada Weather past 2 weeks in St. Albert, Alberta, Canada

Now
39 °F

Passing clouds.


Feels Like: 34 °F
Forecast: 17 / 38 °F
Wind: 8 mph from Northwest

Location: Edmonton Municipal

Current Time: Mar 5, 2015 at 12:34:40 PM

Latest Report: Mar 5, 2015 at 12:00 PM


Visibility: 9 mi

Pressure: 30.07 "Hg

Humidity: 52%

Dew point: 23 °F

Location of St. AlbertLocation

Historic Weather in St. Albert — Graph

°F

St. Albert temperature yesterday

Maximum temperature yesterday: 25 °F (at 6:00 PM)
Minimum temperature yesterday: 0 °F (at 4:00 AM)
Average temperature yesterday: 11 °F

Past Weeks' High & Low Weather Summary

 TemperatureHumidityPressure
High46 °F (Feb 23, 3:00 PM)93% (Feb 24, 7:00 PM)30.76 "Hg (Feb 24, 7:00 PM)
Low-2 °F (Feb 26, 2:00 AM)40% (Mar 3, 2:00 PM)29.81 "Hg (Feb 19, 2:59 AM)
Average20 °F68%30.24 "Hg
* Reported Feb 18 11:00 AM — Mar 5 11:00 AM, St. Albert, Weather by CustomWeather, © 2015

Note: Actual official high and low records may vary slightly from our data, if they occured in-between our weather recording intervals... More about our weather records

Advertising

St. Albert weather history for previous 24 hours

 ConditionsComfort  
Time TempWeatherWind HumidityBarometerVisibility
11:00 AM
Thu, Mar 5
37 °FSunny.10 mph52%30.07 "Hg9 mi
10:00 AM34 °FSunny.8 mph56%30.08 "Hg9 mi
9:00 AM32 °FSunny.7 mph55%30.06 "Hg9 mi
8:00 AM30 °FScattered clouds.9 mph55%30.05 "Hg9 mi
7:00 AM28 °FOvercast.7 mph55%30.03 "Hg9 mi
6:00 AM25 °FPassing clouds.7 mph59%30.03 "Hg9 mi
5:00 AM19 °FPassing clouds.7 mph63%30.03 "Hg9 mi
4:00 AM21 °FPassing clouds.3 mph58%30.02 "Hg9 mi
3:00 AM23 °FClear.7 mph54%30.02 "Hg9 mi
2:00 AM23 °FClear.8 mph54%30.03 "Hg9 mi
1:00 AM23 °FClear.7 mph54%30.03 "Hg9 mi
12:00 AM19 °FClear.7 mph58%30.04 "Hg9 mi
11:00 PM
Wed, Mar 4
21 °FClear.6 mph58%30.05 "Hg9 mi
10:00 PM18 °FClear.5 mph62%30.05 "Hg9 mi
9:00 PM19 °FClear.5 mph58%30.04 "Hg9 mi
8:00 PM19 °FClear.7 mph58%30.05 "Hg9 mi
7:00 PM21 °FPassing clouds.5 mph58%30.05 "Hg9 mi
6:00 PM25 °FSunny.3 mph50%30.04 "Hg9 mi
5:00 PM23 °FScattered clouds.6 mph54%30.05 "Hg9 mi
3:00 PM23 °FSunny.7 mph50%30.06 "Hg9 mi
2:00 PM19 °FPartly sunny.8 mph53%30.08 "Hg9 mi
1:00 PM18 °FPassing clouds.12 mph53%30.11 "Hg9 mi
12:00 PM14 °FSunny.8 mph48%30.16 "Hg9 mi
Weather by CustomWeather, © 2015

See weather overviewHow to use our weather pages